Location: Concrete Bridge Crossing
(40.5373°N, 78.8672°W)
Time: 20:24:19
(UTC+00:00)

ISS - Visible Passes

Search period start: 25 November 2020 00:00
Search period end: 05 December 2020 00:00
Orbit: 418 x 421 km, 51.6° (Epoch: 26 November)

Date Brightness Start Highest point End Pass type
(mag) Time Alt. Az. Time Alt. Az. Time Alt. Az.
25 Nov -2.3 22:33:43 10° W 22:36:43 29° NNW 22:39:43 10° NE visible
26 Nov -0.7 00:12:40 10° NW 00:12:47 10° NW 00:12:47 10° NW visible
26 Nov -1.5 23:24:38 10° NW 23:26:37 15° NNW 23:27:11 14° N visible
27 Nov -1.6 22:36:33 10° WNW 22:38:53 17° NNW 22:41:14 10° NNE visible
28 Nov -1.3 23:27:26 10° NNW 23:28:54 12° N 23:28:54 12° N visible
29 Nov -1.4 22:39:29 10° NW 22:41:11 13° N 22:42:52 10° NNE visible
30 Nov -1.3 23:29:26 10° NNW 23:30:36 13° N 23:30:36 13° N visible
01 Dec -1.4 22:41:52 10° NNW 22:43:29 13° N 22:45:00 10° NNE visible
02 Dec -1.7 23:30:55 10° NNW 23:32:25 17° N 23:32:25 17° N visible
03 Dec -1.8 22:43:31 10° NNW 22:45:42 16° NNE 22:46:56 14° NE visible
04 Dec -0.6 00:19:44 10° NW 00:19:55 11° NW 00:19:55 11° NW visible
04 Dec -2.5 23:32:17 10° NW 23:34:32 30° N 23:34:32 30° N visible
